Weather History for Sault Ste Marie, MI

Change the Weather History Date:

Tuesday, January 29, 2013

  Actual Average Record
Temperature  
Mean Temperature 30 °F 15 °F  
Max Temperature 35 °F 23 °F 48 °F (1914)
Min Temperature 25 °F 7 °F -26 °F (1899)
Degree Days  
Heating Degree Days 35 50  
Month to date heating degree days 1315 1438  
Since 1 July heating degree days 4282 4697  
Moisture  
Dew Point 28 °F    
Average Humidity 87    
Maximum Humidity 96    
Minimum Humidity 78    
Precipitation  
Precipitation 0.11 in 0.06 in 0.95 in (1996)
Month to date precipitation 2.89 2.06  
Year to date precipitation 2.89 2.06  
Snow  
Snow T in 0.90 in 11.70 in (1996)
Month to date snowfall 32.8 29.5  
Since 1 July snowfall 84.8 79.7  
Snow Depth 18.00 in    
Sea Level Pressure  
Sea Level Pressure 29.70 in    
Wind  
Wind Speed 8 mph (ESE)    
Max Wind Speed 16 mph    
Max Gust Speed 25 mph    
Visibility 4 miles    
Events Fog , Rain    
T = Trace of Precipitation, MM = Missing Value Source: NWS Daily Summary

Daily Weather History Graph

Daily Weather History Graph

Search for Another Location

Airport:

Trip Planner

Search our weather history database for the weather conditions in past years. The results will help you decide how hot, cold, wet, or windy it might be!

Date:

Astronomy

Jan. 29, 2013 Rise Set
Actual Time 8:04 AM EST 5:37 PM EST
Civil Twilight 7:31 AM EST 6:10 PM EST
Nautical Twilight 6:55 AM EST 6:46 PM EST
Astronomical Twilight 6:20 AM EST 7:21 PM EST
Moon 8:46 PM EST (1/29) 8:48 AM EST (1/29)
Length of Visible Light 10h 38m
Length of Day
9h 33m
Waning Gibbous, 94% of the Moon is Illuminated
Jan 29
Waning Gibbous
Feb 3
Last Quarter
Feb 10
New
Feb 17
First Quarter
Feb 25
Full

Hourly Weather History & Observations

Time (EST) Temp. Windchill Dew Point Humidity Pressure Visibility Wind Dir Wind Speed Gust Speed Precip Events Conditions
12:22 AM 30.9 °F 26.2 °F 27.0 °F 85% 29.96 in 10.0 mi SE 4.6 mph - N/A   Overcast
12:34 AM 30.9 °F 25.2 °F 27.0 °F 85% 29.96 in 10.0 mi SE 5.8 mph - N/A   Overcast
12:55 AM 30.9 °F 25.2 °F 27.0 °F 85% 29.97 in 10.0 mi ESE 5.8 mph - N/A   Overcast
1:55 AM 30.0 °F 22.4 °F 26.1 °F 85% 29.94 in 10.0 mi ESE 8.1 mph - N/A   Overcast
2:55 AM 28.9 °F 20.4 °F 24.1 °F 82% 29.92 in 10.0 mi ESE 9.2 mph - N/A   Overcast
3:10 AM 28.0 °F 19.3 °F 24.1 °F 85% 29.88 in 10.0 mi ESE 9.2 mph - N/A   Overcast
3:18 AM 28.0 °F 19.3 °F 23.0 °F 81% 29.89 in 10.0 mi ESE 9.2 mph 20.7 mph N/A   Overcast
3:55 AM 28.0 °F 18.1 °F 23.0 °F 81% 29.89 in 10.0 mi ESE 11.5 mph 17.3 mph N/A   Overcast
4:03 AM 27.0 °F 17.3 °F 23.0 °F 85% 29.85 in 10.0 mi East 10.4 mph - N/A   Overcast
4:55 AM 27.0 °F 16.7 °F 24.1 °F 89% 29.86 in 7.0 mi ESE 11.5 mph 18.4 mph N/A   Overcast
5:33 AM 27.0 °F 15.6 °F 24.1 °F 89% 29.81 in 2.5 mi ESE 13.8 mph 20.7 mph N/A   Overcast
5:55 AM 27.0 °F 16.7 °F 25.0 °F 92% 29.83 in 2.5 mi ESE 11.5 mph - N/A   Overcast
6:08 AM 27.0 °F 15.6 °F 25.0 °F 92% 29.81 in 4.0 mi East 13.8 mph 20.7 mph N/A   Overcast
6:55 AM 25.0 °F 14.8 °F 23.0 °F 92% 29.81 in 4.0 mi ESE 10.4 mph 24.2 mph N/A   Overcast
7:55 AM 26.1 °F 15.6 °F 24.1 °F 92% 29.77 in 4.0 mi ESE 11.5 mph 21.9 mph N/A   Overcast
8:12 AM 27.0 °F 16.7 °F 24.1 °F 89% 29.74 in 4.0 mi ESE 11.5 mph 23.0 mph 0.00 in Rain Light Freezing Rain
8:44 AM 28.0 °F 18.1 °F 25.0 °F 88% 29.74 in 2.0 mi ESE 11.5 mph 21.9 mph 0.02 in Rain Light Freezing Rain
8:55 AM 28.0 °F 19.3 °F 26.1 °F 92% 29.75 in 2.0 mi ESE 9.2 mph 19.6 mph 0.03 in Rain Light Freezing Rain
2:55 PM 33.1 °F 25.5 °F 30.9 °F 92% 29.56 in 1.5 mi ESE 9.2 mph 17.3 mph N/A   Overcast
3:55 PM 33.1 °F 27.7 °F 30.9 °F 92% 29.55 in 1.0 mi East 5.8 mph - 0.00 in   Overcast
4:03 PM 33.1 °F 27.7 °F 30.9 °F 92% 29.53 in 0.8 mi East 5.8 mph - 0.00 in Rain Light Rain
4:15 PM 33.1 °F 28.7 °F 32.0 °F 96% 29.54 in 1.0 mi East 4.6 mph - 0.01 in Rain Light Rain
4:25 PM 33.1 °F 27.7 °F 32.0 °F 96% 29.53 in 0.8 mi ESE 5.8 mph - 0.01 in   Mist
4:41 PM 34.0 °F 28.8 °F 32.0 °F 92% 29.53 in 1.2 mi East 5.8 mph - 0.02 in   Overcast
4:55 PM 34.0 °F 29.8 °F 32.0 °F 92% 29.54 in 1.2 mi East 4.6 mph - 0.02 in   Overcast
5:30 PM 34.0 °F 28.8 °F 32.0 °F 92% 29.52 in 0.8 mi East 5.8 mph - N/A   Mist
5:39 PM 34.0 °F 29.8 °F 32.0 °F 92% 29.52 in 1.2 mi East 4.6 mph - N/A   Overcast
5:55 PM 34.0 °F 31.0 °F 32.0 °F 92% 29.55 in 1.2 mi East 3.5 mph - N/A   Overcast
6:20 PM 34.0 °F 31.0 °F 32.0 °F 92% 29.52 in 0.8 mi NE 3.5 mph - 0.00 in Rain Light Rain
6:55 PM 34.0 °F - 32.0 °F 92% 29.55 in 0.5 mi Calm Calm - 0.01 in Fog Fog
7:55 PM 34.0 °F - 32.0 °F 92% 29.55 in 0.5 mi Calm Calm - N/A Fog Fog
8:55 PM 34.0 °F - 32.0 °F 92% 29.55 in 0.5 mi Calm Calm - N/A Fog Fog
9:55 PM 34.0 °F 29.8 °F 30.9 °F 89% 29.53 in 0.5 mi NW 4.6 mph - 0.01 in Fog , Rain Light Rain
10:55 PM 34.0 °F 29.8 °F 32.0 °F 92% 29.49 in 0.5 mi WNW 4.6 mph - 0.01 in Fog , Rain Light Rain
11:55 PM 35.1 °F 29.3 °F 33.1 °F 92% 29.48 in 0.8 mi NW 6.9 mph - 0.01 in Rain Light Rain